Time,TemperatureF,DewpointF,PressureIn,WindDirection,WindDirectionDegrees,WindSpeedMPH,WindSpeedGustMPH,Humidity,HourlyPrecipIn,Conditions,Clouds,dailyrainin,SoftwareType,DateUTC
2013-05-08 00:15:00,66.7,57.0,30.79,South,180,4.0,-999.0,72,-99.99,,,0.00,weatherlink.com 1.10,2013-05-08 05:15:00,
2013-05-08 00:25:00,66.0,58.0,30.79,South,172,6.0,-999.0,74,-99.99,,,0.00,weatherlink.com 1.10,2013-05-08 05:25:00,
2013-05-08 00:40:00,65.5,58.0,30.79,South,183,3.0,-999.0,76,-99.99,,,0.00,weatherlink.com 1.10,2013-05-08 05:40:00,
2013-05-08 00:55:00,65.0,58.0,30.79,South,172,5.0,-999.0,78,-99.99,,,0.00,weatherlink.com 1.10,2013-05-08 05:55:00,
2013-05-08 01:15:00,64.4,58.0,30.80,South,171,5.0,-999.0,79,-99.99,,,0.00,weatherlink.com 1.10,2013-05-08 06:15:00,
2013-05-08 01:25:00,64.0,58.0,30.79,South,171,3.0,-999.0,82,-99.99,,,0.00,weatherlink.com 1.10,2013-05-08 06:25:00,
2013-05-08 01:40:00,64.0,58.0,30.80,South,173,4.0,-999.0,82,-99.99,,,0.00,weatherlink.com 1.10,2013-05-08 06:40:00,
2013-05-08 01:55:00,64.3,59.0,30.79,SSE,159,5.0,-999.0,83,-99.99,,,0.00,weatherlink.com 1.10,2013-05-08 06:55:00,
2013-05-08 02:15:00,64.2,59.0,30.77,SSE,167,3.0,-999.0,83,-99.99,,,0.00,weatherlink.com 1.10,2013-05-08 07:15:00,
2013-05-08 02:25:00,64.1,59.0,30.77,South,178,2.0,-999.0,84,-99.99,,,0.00,weatherlink.com 1.10,2013-05-08 07:25:00,
2013-05-08 02:40:00,64.1,60.0,30.77,South,171,3.0,-999.0,85,-99.99,,,0.00,weatherlink.com 1.10,2013-05-08 07:40:00,
2013-05-08 02:55:00,64.0,60.0,30.78,South,182,2.0,-999.0,85,-99.99,,,0.00,weatherlink.com 1.10,2013-05-08 07:55:00,
2013-05-08 03:15:00,63.6,59.0,30.78,South,180,1.0,-999.0,86,-99.99,,,0.00,weatherlink.com 1.10,2013-05-08 08:15:00,
2013-05-08 03:25:00,63.4,59.0,30.78,South,178,0.0,-999.0,86,-99.99,,,0.00,weatherlink.com 1.10,2013-05-08 08:25:00,
2013-05-08 03:40:00,63.3,59.0,30.77,South,189,2.0,-999.0,87,-99.99,,,0.00,weatherlink.com 1.10,2013-05-08 08:40:00,
2013-05-08 03:55:00,62.9,59.0,30.77,South,179,1.0,-999.0,87,-99.99,,,0.00,weatherlink.com 1.10,2013-05-08 08:55:00,
2013-05-08 04:15:00,62.7,59.0,30.77,South,179,0.0,-999.0,87,-99.99,,,0.00,weatherlink.com 1.10,2013-05-08 09:15:00,
2013-05-08 04:25:00,62.5,59.0,30.77,South,178,2.0,-999.0,89,-99.99,,,0.00,weatherlink.com 1.10,2013-05-08 09:25:00,
2013-05-08 04:40:00,62.6,59.0,30.77,SSE,164,0.0,-999.0,89,-99.99,,,0.00,weatherlink.com 1.10,2013-05-08 09:40:00,
2013-05-08 04:55:00,62.9,60.0,30.75,South,177,0.0,-999.0,89,-99.99,,,0.00,weatherlink.com 1.10,2013-05-08 09:55:00,
2013-05-08 05:16:00,62.9,60.0,30.76,South,187,0.0,-999.0,89,-99.99,,,0.00,weatherlink.com 1.10,2013-05-08 10:16:00,
2013-05-08 05:26:00,62.6,60.0,30.76,South,173,0.0,-999.0,90,-99.99,,,0.00,weatherlink.com 1.10,2013-05-08 10:26:00,
2013-05-08 05:41:00,62.7,60.0,30.77,South,175,0.0,-999.0,90,-99.99,,,0.00,weatherlink.com 1.10,2013-05-08 10:41:00,
2013-05-08 05:56:00,62.9,60.0,30.77,South,170,0.0,-999.0,90,-99.99,,,0.00,weatherlink.com 1.10,2013-05-08 10:56:00,
2013-05-08 06:16:00,62.8,60.0,30.76,SSE,163,0.0,-999.0,90,-99.99,,,0.00,weatherlink.com 1.10,2013-05-08 11:16:00,
2013-05-08 06:26:00,62.3,59.0,30.77,South,174,0.0,-999.0,90,-99.99,,,0.00,weatherlink.com 1.10,2013-05-08 11:26:00,
2013-05-08 06:41:00,61.9,59.0,30.78,South,176,0.0,-999.0,91,-99.99,,,0.00,weatherlink.com 1.10,2013-05-08 11:41:00,
2013-05-08 06:56:00,61.5,59.0,30.79,South,180,0.0,-999.0,91,-99.99,,,0.00,weatherlink.com 1.10,2013-05-08 11:56:00,
2013-05-08 07:16:00,61.1,59.0,30.80,SSW,204,0.0,-999.0,91,-99.99,,,0.00,weatherlink.com 1.10,2013-05-08 12:16:00,
2013-05-08 07:26:00,60.9,58.0,30.81,SSW,204,0.0,-999.0,91,-99.99,,,0.00,weatherlink.com 1.10,2013-05-08 12:26:00,
2013-05-08 07:41:00,61.7,59.0,30.81,SE,144,0.0,-999.0,92,-99.99,,,0.00,weatherlink.com 1.10,2013-05-08 12:41:00,
2013-05-08 07:56:00,63.3,61.0,30.81,ENE,69,0.0,-999.0,92,-99.99,,,0.00,weatherlink.com 1.10,2013-05-08 12:56:00,
2013-05-08 08:16:00,64.1,62.0,30.82,East,82,0.0,-999.0,91,-99.99,,,0.00,weatherlink.com 1.10,2013-05-08 13:16:00,
2013-05-08 08:26:00,65.1,62.0,30.82,ENE,78,0.0,-999.0,90,-99.99,,,0.00,weatherlink.com 1.10,2013-05-08 13:26:00,
2013-05-08 08:41:00,67.2,64.0,30.82,SE,135,2.0,-999.0,88,-99.99,,,0.00,weatherlink.com 1.10,2013-05-08 13:41:00,
2013-05-08 08:56:00,69.1,64.0,30.82,SSE,155,6.0,-999.0,84,-99.99,,,0.00,weatherlink.com 1.10,2013-05-08 13:56:00,
2013-05-08 09:16:00,69.9,65.0,30.82,SSE,159,5.0,-999.0,83,-99.99,,,0.00,weatherlink.com 1.10,2013-05-08 14:16:00,
2013-05-08 09:26:00,70.5,64.0,30.82,SSE,165,10.0,-999.0,81,-99.99,,,0.00,weatherlink.com 1.10,2013-05-08 14:26:00,
2013-05-08 09:41:00,71.7,66.0,30.83,South,175,13.0,-999.0,81,-99.99,,,0.00,weatherlink.com 1.10,2013-05-08 14:41:00,
2013-05-08 09:56:00,72.2,65.0,30.82,South,170,7.0,-999.0,78,-99.99,,,0.00,weatherlink.com 1.10,2013-05-08 14:56:00,
2013-05-08 10:16:00,72.7,65.0,30.83,South,190,6.0,-999.0,76,-99.99,,,0.00,weatherlink.com 1.10,2013-05-08 15:16:00,
2013-05-08 10:26:00,73.1,64.0,30.83,South,173,8.0,-999.0,73,-99.99,,,0.00,weatherlink.com 1.10,2013-05-08 15:26:00,
2013-05-08 10:41:00,74.4,65.0,30.83,South,173,6.0,-999.0,72,-99.99,,,0.00,weatherlink.com 1.10,2013-05-08 15:41:00,
2013-05-08 10:56:00,76.0,65.0,30.82,SSE,168,5.0,-999.0,68,-99.99,,,0.00,weatherlink.com 1.10,2013-05-08 15:56:00,
2013-05-08 11:16:00,76.9,64.0,30.82,SSW,201,6.0,-999.0,65,-99.99,,,0.00,weatherlink.com 1.10,2013-05-08 16:16:00,
2013-05-08 11:26:00,78.2,63.0,30.82,SSW,205,10.0,-999.0,59,-99.99,,,0.00,weatherlink.com 1.10,2013-05-08 16:26:00,
2013-05-08 11:41:00,79.0,63.0,30.82,SSW,193,9.0,-999.0,58,-99.99,,,0.00,weatherlink.com 1.10,2013-05-08 16:41:00,
2013-05-08 11:56:00,79.6,63.0,30.82,SE,126,3.0,-999.0,57,-99.99,,,0.00,weatherlink.com 1.10,2013-05-08 16:56:00,
2013-05-08 12:16:00,80.0,63.0,30.81,South,186,8.0,-999.0,57,-99.99,,,0.00,weatherlink.com 1.10,2013-05-08 17:16:00,
2013-05-08 12:26:00,80.1,65.0,30.80,SE,142,3.0,-999.0,60,-99.99,,,0.00,weatherlink.com 1.10,2013-05-08 17:26:00,
2013-05-08 12:41:00,81.1,64.0,30.80,SSE,166,3.0,-999.0,57,-99.99,,,0.00,weatherlink.com 1.10,2013-05-08 17:41:00,
2013-05-08 12:56:00,81.4,64.0,30.79,SSE,155,4.0,-999.0,56,-99.99,,,0.00,weatherlink.com 1.10,2013-05-08 17:56:00,
2013-05-08 13:16:00,82.0,64.0,30.79,ESE,119,11.0,-999.0,54,-99.99,,,0.00,weatherlink.com 1.10,2013-05-08 18:16:00,
2013-05-08 13:26:00,82.7,64.0,30.78,ESE,121,10.0,-999.0,53,-99.99,,,0.00,weatherlink.com 1.10,2013-05-08 18:26:00,
2013-05-08 13:41:00,83.0,64.0,30.78,SSE,148,7.0,-999.0,53,-99.99,,,0.00,weatherlink.com 1.10,2013-05-08 18:41:00,
2013-05-08 13:56:00,83.2,65.0,30.78,SSW,198,11.0,-999.0,54,-99.99,,,0.00,weatherlink.com 1.10,2013-05-08 18:56:00,
2013-05-08 14:16:00,82.8,63.0,30.78,South,182,9.0,-999.0,52,-99.99,,,0.00,weatherlink.com 1.10,2013-05-08 19:16:00,
2013-05-08 14:25:00,83.9,64.0,30.77,SSE,159,10.0,-999.0,51,-99.99,,,0.00,weatherlink.com 1.10,2013-05-08 19:25:00,
2013-05-08 14:41:00,84.1,65.0,30.76,SSE,156,3.0,-999.0,52,-99.99,,,0.00,weatherlink.com 1.10,2013-05-08 19:41:00,
2013-05-08 14:56:00,84.1,64.0,30.76,South,175,6.0,-999.0,51,-99.99,,,0.00,weatherlink.com 1.10,2013-05-08 19:56:00,
2013-05-08 15:17:00,84.9,65.0,30.75,SSE,163,9.0,-999.0,51,-99.99,,,0.00,weatherlink.com 1.10,2013-05-08 20:17:00,
2013-05-08 15:26:00,85.4,63.0,30.75,SSW,202,9.0,-999.0,48,-99.99,,,0.00,weatherlink.com 1.10,2013-05-08 20:26:00,
2013-05-08 15:41:00,84.7,63.0,30.74,SSE,165,6.0,-999.0,48,-99.99,,,0.00,weatherlink.com 1.10,2013-05-08 20:41:00,
2013-05-08 15:56:00,85.5,62.0,30.73,ESE,117,7.0,-999.0,45,-99.99,,,0.00,weatherlink.com 1.10,2013-05-08 20:56:00,
2013-05-08 16:17:00,85.8,63.0,30.72,SSE,159,2.0,-999.0,46,-99.99,,,0.00,weatherlink.com 1.10,2013-05-08 21:17:00,
2013-05-08 16:27:00,85.7,63.0,30.71,SSE,167,11.0,-999.0,47,-99.99,,,0.00,weatherlink.com 1.10,2013-05-08 21:27:00,
2013-05-08 16:42:00,86.3,63.0,30.71,SSE,155,7.0,-999.0,45,-99.99,,,0.00,weatherlink.com 1.10,2013-05-08 21:42:00,
2013-05-08 16:57:00,86.0,62.0,30.71,ESE,102,4.0,-999.0,45,-99.99,,,0.00,weatherlink.com 1.10,2013-05-08 21:57:00,
2013-05-08 17:17:00,85.0,61.0,30.71,SE,146,3.0,-999.0,44,-99.99,,,0.00,weatherlink.com 1.10,2013-05-08 22:17:00,
2013-05-08 17:27:00,84.5,61.0,30.71,SE,136,4.0,-999.0,45,-99.99,,,0.00,weatherlink.com 1.10,2013-05-08 22:27:00,
2013-05-08 17:42:00,84.4,59.0,30.71,SSE,154,6.0,-999.0,43,-99.99,,,0.00,weatherlink.com 1.10,2013-05-08 22:42:00,
2013-05-08 17:57:00,83.3,60.0,30.71,SE,131,1.0,-999.0,46,-99.99,,,0.00,weatherlink.com 1.10,2013-05-08 22:57:00,
2013-05-08 18:17:00,83.6,61.0,30.71,SSE,157,8.0,-999.0,46,-99.99,,,0.00,weatherlink.com 1.10,2013-05-08 23:17:00,
2013-05-08 18:27:00,81.7,60.0,30.71,South,178,6.0,-999.0,48,-99.99,,,0.00,weatherlink.com 1.10,2013-05-08 23:27:00,
2013-05-08 18:42:00,81.2,61.0,30.71,SSE,150,5.0,-999.0,50,-99.99,,,0.00,weatherlink.com 1.10,2013-05-08 23:42:00,
2013-05-08 18:57:00,81.6,61.0,30.71,East,98,2.0,-999.0,49,-99.99,,,0.00,weatherlink.com 1.10,2013-05-08 23:57:00,
2013-05-08 19:17:00,81.0,60.0,30.71,SE,140,4.0,-999.0,49,-99.99,,,0.00,weatherlink.com 1.10,2013-05-09 00:17:00,
2013-05-08 19:26:00,80.1,60.0,30.70,ESE,120,2.0,-999.0,50,-99.99,,,0.00,weatherlink.com 1.10,2013-05-09 00:26:00,
2013-05-08 19:41:00,78.8,60.0,30.71,SE,130,2.0,-999.0,52,-99.99,,,0.00,weatherlink.com 1.10,2013-05-09 00:41:00,
2013-05-08 19:56:00,77.7,59.0,30.70,SE,145,4.0,-999.0,53,-99.99,,,0.00,weatherlink.com 1.10,2013-05-09 00:56:00,
2013-05-08 20:17:00,76.8,59.0,30.70,SSE,156,4.0,-999.0,55,-99.99,,,0.00,weatherlink.com 1.10,2013-05-09 01:17:00,
2013-05-08 20:27:00,75.7,61.0,30.71,SE,127,6.0,-999.0,60,-99.99,,,0.00,weatherlink.com 1.10,2013-05-09 01:27:00,
2013-05-08 20:42:00,74.7,62.0,30.71,SSE,159,3.0,-999.0,64,-99.99,,,0.00,weatherlink.com 1.10,2013-05-09 01:42:00,
2013-05-08 20:57:00,74.0,61.0,30.71,SSE,159,3.0,-999.0,65,-99.99,,,0.00,weatherlink.com 1.10,2013-05-09 01:57:00,
2013-05-08 21:17:00,73.2,62.0,30.72,SSW,198,7.0,-999.0,67,-99.99,,,0.00,weatherlink.com 1.10,2013-05-09 02:17:00,
2013-05-08 21:26:00,72.2,61.0,30.72,SSE,157,5.0,-999.0,69,-99.99,,,0.00,weatherlink.com 1.10,2013-05-09 02:26:00,
2013-05-08 21:41:00,71.5,62.0,30.73,South,171,8.0,-999.0,72,-99.99,,,0.00,weatherlink.com 1.10,2013-05-09 02:41:00,
2013-05-08 21:56:00,70.7,62.0,30.74,SE,128,3.0,-999.0,74,-99.99,,,0.00,weatherlink.com 1.10,2013-05-09 02:56:00,
2013-05-08 22:17:00,70.1,63.0,30.75,SE,135,5.0,-999.0,77,-99.99,,,0.00,weatherlink.com 1.10,2013-05-09 03:17:00,
2013-05-08 22:27:00,69.4,62.0,30.75,South,180,2.0,-999.0,78,-99.99,,,0.00,weatherlink.com 1.10,2013-05-09 03:27:00,
2013-05-08 22:42:00,69.0,62.0,30.75,SSE,149,3.0,-999.0,79,-99.99,,,0.00,weatherlink.com 1.10,2013-05-09 03:42:00,
2013-05-08 22:57:00,68.5,63.0,30.75,South,170,4.0,-999.0,81,-99.99,,,0.00,weatherlink.com 1.10,2013-05-09 03:57:00,
2013-05-08 23:17:00,68.0,62.0,30.75,SSE,148,9.0,-999.0,82,-99.99,,,0.00,weatherlink.com 1.10,2013-05-09 04:17:00,
2013-05-08 23:27:00,68.0,63.0,30.75,SSE,160,6.0,-999.0,83,-99.99,,,0.00,weatherlink.com 1.10,2013-05-09 04:27:00,
2013-05-08 23:42:00,68.1,63.0,30.75,SSE,168,4.0,-999.0,83,-99.99,,,0.00,weatherlink.com 1.10,2013-05-09 04:42:00,
2013-05-08 23:57:00,68.1,63.0,30.76,South,174,4.0,-999.0,84,-99.99,,,0.00,weatherlink.com 1.10,2013-05-09 04:57:00,